Theta_e
310 310 310 310 310 310 310 310 310 311 311 311 311 311 311 311 311 312 311 311 311 311 311 311 311 310 310 310 309 309 309 309 308 308 308 308 307 307 308 308 309 310 310 310 310 309 309 308 308 308 307 306 304 303 302 301 301 299 298 297 295 295 295 294 296 297 296 293 291 290 289 288 287 286 286 285 286 286 284 283 283 283 283 283 283
309 309 309 309 309 309 309 309 309 310 310 310 310 311 311 311 311 311 311 311 310 310 310 310 310 309 309 309 309 309 309 308 308 308 308 308 308 307 308 307 307 308 308 308 308 308 308 307 307 307 307 305 304 303 302 301 300 299 298 297 295 295 295 294 294 296 295 291 289 288 288 287 286 286 286 285 285 286 285 284 284 283 283 283 284
309 309 309 309 308 308 308 308 308 309 309 309 310 309 310 310 310 310 310 310 310 309 309 309 309 309 309 309 308 308 308 308 308 308 308 308 307 307 307 307 307 307 307 307 307 307 307 306 306 306 306 304 303 302 302 301 300 299 298 297 296 295 295 294 293 295 294 290 288 287 287 286 286 286 286 285 285 285 286 286 285 285 284 284 286
309 309 309 308 308 307 308 308 308 308 308 308 309 308 308 309 308 309 309 309 309 309 309 308 308 308 308 308 308 308 308 308 307 307 307 307 307 306 307 307 306 306 306 306 306 306 306 305 305 305 305 303 303 302 301 301 300 298 297 297 296 295 295 294 293 293 293 289 286 286 286 285 285 286 286 285 285 286 286 286 286 286 286 286 287
308 308 308 309 308 308 308 307 307 307 307 307 307 307 307 307 307 307 307 308 308 308 308 307 307 307 307 307 308 307 307 307 307 307 307 307 307 306 306 307 306 306 305 305 305 305 305 305 305 305 304 303 302 302 301 300 299 298 297 296 296 295 294 293 292 292 292 289 286 285 285 285 285 285 286 285 285 285 285 286 286 286 287 287 287
308 308 308 308 308 308 308 307 307 307 306 307 307 306 307 306 306 307 306 306 306 306 306 306 306 306 306 306 306 306 306 306 306 306 306 306 307 306 306 306 306 305 305 304 304 304 304 304 304 304 304 303 302 302 301 301 299 298 297 296 296 295 293 293 292 291 290 289 287 285 284 284 285 285 285 285 285 285 285 286 286 287 287 287 286
309 308 308 308 308 307 307 306 306 307 306 306 306 306 306 306 306 306 306 305 305 305 305 305 305 305 305 306 305 305 305 305 305 305 305 305 306 306 306 306 305 305 304 304 304 303 303 304 304 304 304 303 303 303 302 301 299 298 297 297 296 294 293 292 291 290 289 288 287 286 286 285 285 285 284 285 285 286 286 286 286 286 286 286 285
308 308 307 307 306 306 305 305 305 306 306 306 306 306 305 305 305 305 305 305 305 305 304 304 304 304 304 304 305 304 304 304 304 304 304 305 305 305 305 305 305 305 304 304 303 303 303 303 303 303 304 303 303 303 302 301 300 298 297 297 295 294 293 291 290 289 288 287 287 286 286 285 284 284 284 284 285 286 287 287 286 286 285 285 284
306 306 306 306 305 305 304 305 305 305 305 305 305 305 304 305 305 304 304 304 304 304 304 303 303 303 303 304 303 303 303 303 303 304 304 304 304 304 304 303 303 303 303 304 303 303 303 302 302 302 303 303 303 302 302 302 300 299 298 297 295 294 292 291 289 288 288 287 287 286 285 284 284 284 284 285 286 287 287 287 286 285 285 284 283
304 305 305 304 304 304 304 305 305 305 305 304 304 305 304 304 304 304 304 303 303 303 303 303 303 302 303 303 302 302 302 303 303 303 303 303 303 303 302 302 302 302 302 302 302 302 302 301 302 302 302 302 302 302 301 301 300 300 299 298 296 294 292 290 289 288 288 288 287 285 285 284 284 284 285 286 287 287 287 286 284 283 283 283 282
302 302 302 302 303 303 303 304 304 304 304 304 304 304 304 304 304 304 303 303 302 302 302 302 302 302 302 301 301 301 301 302 302 302 302 302 302 302 302 301 301 301 301 301 301 301 301 301 301 301 301 301 300 300 300 300 300 299 299 298 296 295 293 291 289 288 288 288 287 286 285 285 284 286 287 287 286 286 286 285 283 282 282 281 281
300 300 300 300 300 300 301 301 302 302 302 302 302 303 303 303 303 303 303 302 302 301 301 301 301 301 301 300 300 301 301 301 301 301 301 301 301 301 301 300 300 300 300 300 300 300 300 300 300 300 300 300 300 300 300 299 299 298 297 296 295 295 294 293 291 289 288 288 287 286 286 286 285 285 286 286 285 285 285 284 283 282 282 281 282
299 299 300 299 299 299 299 299 299 300 300 300 300 300 300 301 301 301 301 301 301 301 301 301 300 300 300 300 300 300 300 301 300 300 300 300 300 300 300 300 299 299 299 299 299 299 299 299 299 299 299 299 299 299 299 298 297 296 295 295 294 293 292 292 292 291 290 289 287 286 287 288 286 286 287 288 286 284 283 282 282 282 282 282 282
298 298 298 298 298 298 298 297 298 298 298 298 298 298 298 299 299 299 299 299 299 300 300 300 300 300 299 299 300 300 300 300 300 299 299 299 299 299 299 299 299 299 299 298 298 298 298 298 298 298 298 298 298 298 297 297 296 295 294 293 292 292 291 290 291 290 290 289 288 288 288 289 289 289 290 290 288 286 285 283 283 282 282 283 283
297 297 297 297 297 297 297 297 297 298 298 298 298 298 298 298 298 298 298 298 298 298 298 298 298 299 299 299 299 299 300 300 299 299 299 298 299 298 298 298 298 298 298 297 297 298 297 297 297 297 297 297 296 296 296 296 294 293 293 292 291 290 290 289 289 289 288 289 289 289 289 291 292 293 293 292 290 290 289 287 286 284 283 283 282
296 296 296 297 297 297 297 297 297 298 298 298 298 298 298 298 298 298 297 298 298 297 297 297 297 297 297 297 297 298 299 298 298 298 298 298 298 298 297 297 297 297 297 297 297 297 297 296 296 296 296 296 295 295 295 294 293 292 291 291 290 289 288 288 288 288 288 288 289 290 290 291 292 293 294 293 290 289 288 286 284 283 282 281 280
295 295 295 296 296 296 296 296 297 297 297 297 298 298 297 297 297 297 297 297 297 297 297 297 297 296 296 296 296 296 297 297 296 296 297 297 297 296 296 296 296 296 296 296 296 296 296 296 295 295 295 295 294 294 293 292 291 291 290 289 288 287 287 287 287 287 287 288 289 290 291 291 292 292 293 292 290 288 286 283 282 282 282 280 279
294 294 294 294 294 295 295 295 295 296 296 296 296 297 297 297 297 296 295 295 296 296 296 296 297 296 295 296 295 295 296 296 295 295 295 295 295 296 296 295 295 295 295 295 295 295 295 295 295 294 294 294 293 292 292 291 290 290 289 288 287 286 286 286 286 286 287 288 289 290 290 290 291 291 291 291 290 288 287 286 284 283 281 281 280
293 292 292 293 293 294 294 294 294 294 294 295 295 295 295 295 296 296 295 295 295 296 296 295 296 297 296 296 295 295 295 295 295 294 294 294 294 295 295 294 294 294 294 294 294 294 294 294 294 294 293 293 292 291 291 291 290 289 288 287 286 286 285 285 286 286 287 288 287 287 288 288 289 289 289 289 288 288 288 288 287 285 282 281 281
291 291 291 291 292 292 292 293 293 293 293 293 294 294 294 294 295 295 295 295 294 295 295 294 294 296 296 295 295 295 294 295 295 294 293 293 294 293 293 294 293 293 294 294 293 294 294 293 293 293 292 292 292 291 290 290 289 289 288 287 286 286 286 285 286 286 286 286 285 286 287 287 287 287 287 286 287 287 286 287 288 287 285 283 281
289 289 290 290 291 292 292 292 292 292 292 292 292 293 293 293 293 293 293 293 293 293 294 293 293 294 295 295 295 295 295 294 294 294 293 292 293 293 293 293 293 293 293 293 293 293 293 293 292 292 292 292 291 290 290 289 289 288 288 288 287 287 286 285 286 286 286 285 285 285 286 285 285 285 285 285 286 285 285 285 286 287 286 284 282
288 288 288 288 289 290 290 291 291 291 291 291 291 292 292 292 291 291 291 291 291 291 292 292 291 292 294 294 294 294 294 294 293 293 292 291 291 292 292 292 292 293 292 292 292 292 292 292 292 291 291 291 290 289 289 289 288 288 288 288 287 287 286 285 285 285 285 284 284 284 284 283 283 284 284 284 285 285 284 284 284 284 284 285 284
286 286 287 287 288 288 289 290 289 289 290 289 289 290 291 290 290 290 290 289 290 290 290 291 290 290 291 293 293 293 293 293 293 293 292 291 291 291 291 291 292 292 292 292 292 292 292 292 291 290 290 290 289 288 288 288 288 287 288 288 287 286 285 285 285 284 284 284 283 283 283 283 283 283 283 283 284 284 283 283 283 283 283 283 282
285 286 286 286 287 287 288 288 289 288 288 288 288 288 289 289 288 289 289 288 288 289 289 289 289 289 290 290 291 292 292 292 292 292 291 291 291 291 291 291 291 291 291 291 291 291 291 291 291 290 290 289 289 288 288 288 288 288 287 287 286 286 285 285 284 284 284 283 283 283 283 283 283 284 284 283 283 282 282 282 282 282 282 281 280
284 284 284 285 285 285 286 287 287 287 286 286 287 287 287 287 287 288 288 287 287 287 288 288 288 288 289 289 290 291 291 291 291 291 290 290 290 290 291 291 290 290 290 291 291 291 291 290 289 289 289 288 288 287 287 288 288 287 287 287 286 286 286 285 284 284 284 283 283 283 283 283 284 284 283 283 282 282 282 282 281 281 281 280 280
282 282 283 283 283 283 284 285 285 285 285 285 285 286 286 286 286 286 287 287 287 287 287 288 288 288 288 288 289 290 290 290 290 290 289 289 289 290 290 290 290 290 289 290 290 290 290 289 288 287 287 287 287 287 287 287 287 287 287 287 287 287 286 285 284 284 283 283 283 283 283 283 283 283 282 282 282 282 282 281 281 280 280 279 279
282 282 281 281 281 281 282 283 283 283 283 284 284 284 285 285 285 286 286 286 286 287 287 287 287 288 288 288 289 289 289 289 289 289 289 288 289 289 289 289 289 288 288 288 288 289 289 289 287 287 287 286 286 286 286 286 287 287 287 287 287 287 286 285 284 284 284 284 284 283 283 282 282 282 282 281 281 281 281 281 280 279 279 279 278
281 280 280 279 280 280 280 281 281 281 282 282 282 283 284 284 285 285 286 286 286 286 287 287 287 287 288 288 288 288 288 289 289 289 288 288 289 289 289 288 288 287 287 287 288 288 288 287 286 286 286 285 286 286 286 286 286 287 287 287 287 287 286 285 285 286 286 285 284 283 282 281 281 281 281 281 281 280 280 280 280 279 278 278 277
279 278 278 279 279 279 279 279 279 279 279 280 281 282 282 283 284 284 285 286 286 286 286 286 287 287 287 287 288 287 288 288 289 289 288 288 288 288 288 288 288 287 287 287 287 287 287 286 285 285 285 285 285 285 286 286 286 286 287 287 287 286 286 285 286 286 285 284 283 282 281 281 281 281 281 280 280 280 279 279 280 279 278 277 276
277 277 277 277 277 277 277 276 277 278 278 279 280 280 281 282 282 283 284 285 285 285 286 286 286 287 287 287 287 287 287 288 288 288 288 288 287 287 287 288 287 287 287 287 287 286 285 285 284 284 284 285 285 285 285 286 286 287 287 287 286 286 285 285 285 285 284 284 283 282 282 281 281 280 280 279 279 279 279 279 279 279 278 277 276
275 275 275 274 274 274 274 274 275 276 277 278 278 279 280 281 281 282 283 284 285 285 285 286 286 286 287 287 287 287 287 288 288 288 288 288 287 287 287 287 287 287 287 287 286 285 285 284 284 284 284 284 285 285 285 285 286 287 287 286 286 285 285 285 285 284 283 283 283 282 282 281 280 280 279 279 278 278 278 279 279 278 278 277 276
273 273 272 272 272 272 272 273 274 275 276 277 278 278 279 280 281 282 283 283 284 284 285 285 286 286 286 287 287 287 287 288 288 288 288 287 287 287 287 287 286 286 286 287 286 285 285 284 284 284 284 284 285 285 285 285 286 287 287 286 285 285 284 284 284 284 283 283 282 282 281 281 280 279 279 279 279 278 278 278 278 277 277 276 276
271 270 270 270 270 271 271 272 273 274 275 276 276 277 278 279 280 281 282 282 282 283 284 285 286 286 286 287 287 287 287 288 288 288 288 287 287 287 286 286 286 286 286 287 286 285 285 284 284 284 284 284 284 285 285 285 286 287 287 286 285 284 284 284 284 284 283 283 283 282 281 280 279 278 278 279 279 278 278 277 276 276 275 275 274
269 268 269 269 270 270 271 271 272 273 273 274 275 276 277 278 279 280 281 282 282 283 284 285 285 286 286 287 287 287 287 287 288 287 287 287 287 287 286 286 286 286 287 287 286 285 285 284 284 284 284 284 284 285 285 286 286 286 286 285 284 284 284 284 283 283 282 282 282 281 280 279 279 278 278 278 278 277 276 275 275 275 274 273 273
267 267 267 267 268 269 269 270 270 271 272 273 274 275 276 277 278 280 281 282 283 283 284 284 285 285 286 286 287 287 287 287 287 287 287 287 287 286 286 286 286 286 286 287 286 285 284 284 284 284 284 284 284 285 285 286 286 286 285 284 283 283 283 282 282 282 282 282 281 280 279 279 279 280 279 278 276 275 274 274 274 274 273 273 272
265 265 265 266 266 267 268 268 269 270 271 272 273 274 275 276 278 279 281 282 283 283 284 284 285 285 286 286 286 286 287 287 287 287 287 287 286 286 286 285 286 286 286 287 286 285 284 284 284 283 284 284 284 285 285 286 285 285 284 283 283 282 282 282 281 281 281 281 280 280 280 280 280 280 279 278 276 275 274 274 273 273 273 273 272
263 263 264 265 265 266 267 268 269 270 271 272 273 274 275 276 278 279 281 282 283 283 284 284 285 285 285 286 286 286 286 286 286 286 286 286 286 286 286 285 285 285 286 286 286 285 284 284 283 283 283 283 284 284 285 284 284 284 283 283 282 282 282 282 282 281 281 280 280 280 280 280 280 280 279 277 275 274 274 273 273 272 272 272 272
263 263 264 264 265 266 267 268 269 270 271 272 273 274 275 276 278 280 281 282 282 282 283 284 284 285 285 285 285 285 285 285 286 286 286 286 286 286 285 285 285 285 286 286 285 285 284 283 283 283 283 283 283 284 284 283 283 283 282 282 282 282 282 282 281 281 281 280 280 280 280 280 279 279 278 276 274 273 273 273 273 272 271 271 271
263 263 264 264 265 266 267 268 269 270 271 272 273 274 275 276 278 279 280 281 281 282 283 284 284 284 285 285 285 285 285 285 285 285 285 285 285 285 285 285 285 285 285 285 285 284 283 283 283 283 283 283 283 283 283 283 283 282 282 282 281 281 281 281 280 280 280 280 280 280 280 279 278 277 277 276 275 273 273 273 273 272 271 270 269
262 263 263 264 265 266 267 268 268 269 270 271 272 274 275 276 277 278 279 280 281 282 283 283 284 284 284 284 284 284 284 284 285 285 285 285 285 284 284 284 284 285 285 284 284 283 283 283 283 283 283 283 283 283 283 283 282 282 282 282 281 281 280 280 280 280 280 280 280 279 278 278 277 276 276 275 275 274 273 273 272 271 270 269 268
262 263 263 264 265 265 266 267 268 269 270 271 272 273 274 275 276 277 278 280 281 282 282 283 283 283 283 283 283 283 283 284 284 284 284 284 284 284 284 284 284 284 284 284 283 283 283 283 283 283 282 282 282 282 282 282 282 282 282 281 281 281 280 280 281 280 280 280 279 278 277 277 276 275 275 274 274 274 273 272 271 270 270 269 269
262 263 263 264 265 265 266 267 268 268 269 270 272 273 274 275 276 277 278 279 280 281 282 282 282 282 282 282 282 283 283 283 283 283 283 283 282 282 282 282 283 283 283 283 283 283 283 283 282 282 282 282 282 281 281 281 281 281 281 281 281 280 279 279 279 279 279 278 278 277 276 276 276 275 274 274 273 273 272 272 271 270 270 269 269
262 263 263 264 265 265 266 267 267 268 269 271 273 274 275 276 276 277 278 279 280 281 281 281 281 281 281 282 282 282 282 282 281 281 281 281 281 281 281 281 281 282 282 282 282 282 282 282 282 281 281 281 281 281 281 281 281 281 280 280 279 279 278 278 277 278 278 277 277 276 276 275 275 274 274 273 273 273 272 272 271 270 270 269 269
263 263 264 265 265 266 266 267 268 269 271 272 273 274 274 275 276 277 278 279 280 280 280 280 280 280 280 281 281 281 280 280 279 279 279 279 279 280 280 280 280 281 281 281 281 281 282 281 281 280 280 280 280 280 280 280 280 280 280 279 279 278 278 278 277 277 277 277 276 276 275 275 274 274 273 273 273 272 272 271 271 270 269 269 268
263 263 264 265 265 266 267 268 269 270 271 272 273 273 274 275 276 277 277 278 278 279 279 279 279 279 279 279 279 278 278 278 278 277 277 278 278 278 278 279 279 280 280 280 280 280 281 280 280 279 279 278 278 279 279 279 279 279 280 280 279 279 278 278 278 277 277 276 276 275 274 274 274 273 273 273 272 272 271 271 270 270 269 268 268
263 264 264 265 266 267 268 268 269 270 270 271 272 272 273 274 274 275 275 276 276 277 277 277 277 277 277 276 276 276 276 276 276 276 276 277 277 277 277 278 278 279 279 278 279 279 279 279 279 278 278 278 278 278 278 278 278 278 278 279 279 278 278 277 277 276 276 276 275 275 274 274 273 273 273 272 272 271 271 271 270 270 269 268 267
263 263 264 265 266 266 267 267 268 269 269 270 270 271 271 272 272 273 274 274 275 275 275 275 275 274 274 274 274 275 275 275 275 275 275 276 276 277 277 277 277 278 277 277 277 277 277 277 277 277 277 277 277 277 277 277 277 277 277 277 277 276 276 276 275 275 275 275 274 274 274 273 273 272 272 271 271 271 270 270 269 269 268 267 267
262 263 263 264 265 265 266 266 266 267 268 268 269 269 270 270 271 272 272 272 273 273 273 273 273 273 272 272 273 273 273 274 274 274 274 275 276 276 276 276 276 276 277 276 276 276 276 276 276 276 276 277 277 276 276 276 276 276 276 276 275 275 275 274 274 274 274 274 273 273 273 273 272 272 271 270 270 270 269 269 268 267 267 266 266
261 262 262 263 263 264 264 264 264 265 266 266 266 267 268 268 269 270 270 270 271 271 271 271 271 271 271 271 272 272 272 273 273 273 274 274 274 275 275 275 275 275 276 276 276 276 276 276 276 276 276 276 276 276 275 275 275 275 275 275 274 274 273 273 273 273 273 273 272 272 272 271 271 271 270 270 269 269 268 267 267 266 266 265 264
261 261 262 262 262 262 263 263 263 263 264 264 264 265 265 266 267 267 268 268 269 269 269 270 270 270 270 270 270 271 271 272 272 272 273 273 273 273 274 274 274 275 275 275 275 274 274 274 274 275 275 275 275 275 275 275 275 274 274 274 273 273 273 272 272 272 272 271 271 271 270 270 269 269 269 268 268 267 267 266 265 265 265 264 264
261 261 261 261 261 262 262 262 262 262 262 262 263 263 264 264 264 265 265 266 266 267 267 268 268 268 269 269 269 270 271 271 271 271 272 272 272 272 273 273 273 274 274 273 273 273 273 273 273 273 273 274 274 274 273 273 273 272 272 272 271 271 271 271 270 270 270 270 269 269 269 269 268 268 267 267 266 266 265 265 264 264 264 263 263
Wind_Speed
11 11 12 14 16 17 17 18 18 19 21 22 23 24 25 25 25 25 26 26 26 26 27 27 27 27 27 27 28 28 29 29 28 28 30 32 32 32 34 34 36 37 38 39 40 41 42 42 42 43 43 43 42 41 42 42 43 43 42 40 40 39 37 31 21 17 19 21 21 23 28 31 33 37 41 43 43 42 39 37 35 33 32 30 28
9 10 12 13 15 16 16 17 17 18 20 21 23 24 25 25 25 26 27 27 26 27 28 28 28 27 28 28 29 29 30 30 30 29 30 32 32 33 34 35 36 37 37 38 39 40 40 41 42 42 42 42 41 40 41 42 41 42 42 41 42 43 41 37 30 23 20 20 20 20 22 27 29 32 37 40 41 41 39 37 35 34 32 30 28
11 11 12 13 14 15 16 17 17 18 19 20 22 23 24 24 25 26 27 27 27 28 28 29 29 29 29 30 31 31 32 32 31 31 32 32 33 34 35 35 36 37 38 39 40 39 39 40 42 42 41 41 41 40 41 42 41 42 43 43 43 44 43 40 35 29 22 18 19 19 21 24 26 28 32 35 36 37 37 35 34 32 30 28 27
14 13 13 13 14 15 16 17 17 18 19 20 21 22 23 23 24 25 26 26 27 28 28 29 29 30 30 31 32 33 33 33 32 33 33 34 34 35 35 37 37 37 39 39 39 39 39 40 40 41 40 40 40 40 41 41 41 42 43 42 43 44 42 40 38 34 24 16 16 19 21 24 23 24 28 30 30 33 34 33 31 29 27 26 25
17 17 16 17 17 17 17 18 18 19 20 21 22 22 22 23 23 24 25 26 26 27 28 29 29 30 31 32 34 34 35 35 34 34 35 35 36 36 36 38 38 38 39 39 39 39 39 40 40 39 39 39 39 40 40 41 41 42 42 42 42 43 40 38 38 35 28 20 17 17 20 23 21 22 28 31 30 29 28 28 27 26 25 24 22
19 19 19 20 19 19 19 19 19 20 21 21 22 22 23 23 23 24 24 25 26 26 27 28 29 31 32 33 34 35 35 35 35 36 36 37 37 37 37 38 39 39 39 39 39 39 39 40 40 39 39 40 40 40 41 41 42 42 42 42 41 40 38 36 36 34 30 25 21 20 21 23 22 23 27 30 31 30 27 24 23 23 23 23 22
20 20 20 20 20 19 19 19 19 20 21 22 22 23 23 23 24 24 24 25 26 26 27 27 28 30 32 33 34 35 35 35 36 37 37 38 39 39 39 39 40 40 40 40 39 39 40 40 40 40 41 42 43 42 42 41 41 42 43 42 40 37 36 35 34 32 29 25 23 23 24 24 24 25 28 29 28 29 28 25 23 23 24 24 25
19 20 20 20 20 20 19 19 18 19 19 20 21 22 22 23 23 24 24 25 26 26 27 27 28 29 31 32 34 34 35 36 37 37 38 39 39 40 41 40 40 40 41 41 40 40 40 41 42 42 43 44 45 44 43 42 41 42 42 41 38 36 35 34 30 29 28 25 23 24 25 25 25 26 29 28 26 25 28 29 27 27 27 26 25
20 20 20 20 20 20 20 20 20 20 20 20 20 20 21 22 23 24 25 25 26 26 26 27 28 29 30 32 33 34 35 37 37 38 39 40 40 40 41 41 41 41 41 40 40 41 41 42 43 43 44 45 45 45 45 44 43 42 41 40 38 37 34 30 28 27 27 25 23 24 24 24 26 28 28 29 30 29 30 30 27 26 28 25 24
21 21 21 21 21 20 20 20 21 21 22 22 22 22 22 23 24 24 25 25 26 26 26 27 28 29 30 32 32 33 35 37 37 38 39 39 40 40 40 41 41 40 40 40 40 40 41 42 43 43 43 44 45 44 45 45 44 44 43 41 39 38 33 29 30 31 29 26 25 26 24 22 26 32 33 34 35 32 31 31 27 24 24 21 20
21 21 21 21 22 22 21 21 21 21 21 22 22 23 23 24 25 26 26 26 26 26 26 28 29 29 30 32 33 34 35 36 36 37 38 38 39 40 41 41 40 40 39 40 40 40 39 40 41 42 42 42 43 43 43 44 44 45 45 42 40 40 37 35 33 32 30 26 25 27 25 24 28 34 35 35 34 31 31 32 28 25 24 20 16
21 22 22 23 24 24 25 25 24 24 24 23 23 23 23 24 25 26 26 26 27 27 28 29 30 30 30 32 33 35 36 36 36 36 36 36 37 39 41 41 41 40 40 40 40 39 38 39 39 40 41 42 42 42 42 43 43 44 43 41 40 40 41 40 37 34 32 28 25 27 29 30 32 35 35 34 32 30 29 30 29 28 27 23 19
22 23 24 25 26 27 27 27 27 27 27 27 26 26 26 26 25 26 26 26 26 28 29 30 31 31 31 33 35 36 37 37 35 35 35 35 36 37 40 42 42 42 41 40 40 39 38 38 38 39 40 40 40 40 40 41 40 40 39 39 39 39 39 40 39 38 38 36 33 34 36 36 36 37 38 37 35 31 29 29 30 30 28 26 25
23 25 26 26 27 28 28 29 29 29 29 29 29 28 28 28 28 27 28 27 27 28 29 30 31 32 32 33 35 37 38 38 36 35 34 34 34 35 38 41 42 43 43 41 40 39 38 38 38 39 38 37 38 38 38 38 37 36 37 38 39 39 38 39 38 37 38 41 41 40 40 38 36 37 39 38 37 35 34 33 33 32 30 27 25
24 26 28 29 30 31 32 32 32 33 33 33 33 32 32 31 31 31 30 30 29 30 30 30 31 32 32 33 35 38 40 38 36 35 34 33 33 34 37 39 41 43 43 41 40 40 39 38 39 39 38 36 36 36 36 36 35 34 35 36 37 37 38 39 40 38 38 40 42 41 40 38 37 37 39 38 37 35 35 35 34 33 29 23 20
27 29 31 32 33 34 35 36 36 36 37 37 37 37 36 36 35 34 33 33 32 32 32 32 32 33 33 33 34 39 42 39 36 35 34 33 32 33 35 38 40 42 43 41 40 40 40 39 39 39 38 37 36 35 34 34 33 33 33 33 34 34 35 37 39 38 37 38 39 39 38 38 38 38 37 36 36 35 32 29 28 28 25 20 17
29 31 33 34 35 35 35 36 36 37 37 38 38 39 38 38 37 35 35 36 36 35 34 35 35 34 35 34 34 38 43 40 35 34 33 31 31 33 35 37 39 41 42 41 40 40 40 39 38 39 38 37 34 33 32 32 32 32 32 30 30 30 30 31 33 33 34 36 36 36 36 38 39 38 33 32 35 36 33 29 28 29 25 17 14
30 32 33 34 35 35 34 34 35 36 37 37 37 38 38 38 37 36 35 37 38 39 37 38 39 37 36 37 36 37 42 42 36 33 33 30 30 32 34 36 38 39 39 39 39 39 39 38 38 37 38 36 33 32 32 31 31 32 31 28 28 27 27 29 30 32 34 35 34 35 36 37 38 36 31 29 33 36 35 33 33 32 27 19 15
29 31 32 33 33 33 33 33 34 34 35 36 36 36 37 37 38 38 37 37 38 40 39 38 40 41 39 39 39 37 41 43 39 34 33 31 29 31 33 34 36 37 36 36 37 37 37 37 36 36 36 35 33 32 32 32 32 32 31 30 29 30 30 33 35 36 36 34 32 32 31 30 31 31 29 29 33 35 34 33 34 34 29 23 21
29 30 31 32 33 33 33 33 33 33 33 35 36 37 36 37 38 38 38 38 38 40 40 38 39 43 42 40 40 39 40 42 41 36 33 32 30 30 32 34 36 36 34 34 35 35 35 35 35 34 34 33 33 33 33 33 33 33 33 34 34 33 34 37 39 40 38 34 31 30 29 28 29 30 30 30 32 33 33 31 30 31 30 27 26
29 29 30 32 32 33 33 32 33 34 34 34 36 38 38 36 37 38 37 38 37 39 40 39 37 42 44 42 41 42 40 40 41 37 33 31 30 30 32 36 37 36 34 35 35 34 33 32 32 32 32 33 34 33 32 33 34 35 37 39 39 37 38 39 39 38 36 33 32 31 30 29 30 31 31 31 31 31 31 29 26 27 27 26 26
29 29 29 30 31 32 33 33 33 34 35 35 35 39 40 37 36 37 36 36 36 37 39 38 36 39 44 43 42 43 41 39 39 38 34 30 29 29 32 36 37 35 35 36 35 33 32 31 31 31 30 31 33 33 33 32 33 37 41 42 39 38 38 39 37 35 34 33 32 31 30 31 31 31 30 30 30 29 29 27 24 23 21 19 19
29 29 30 31 32 33 34 35 35 35 36 35 34 37 40 38 37 36 34 33 35 35 36 36 34 35 40 43 43 43 41 39 38 37 34 30 28 29 32 35 36 35 35 37 36 34 32 31 30 30 29 30 31 33 32 31 33 38 41 40 37 36 36 36 35 34 33 32 30 30 30 30 30 30 30 30 29 29 27 25 23 21 19 16 14
31 31 32 33 34 35 35 36 37 36 35 35 34 36 38 37 37 36 34 31 31 32 34 34 32 31 34 39 42 43 41 39 38 37 35 31 29 29 30 33 35 35 37 39 39 35 32 31 30 30 29 29 30 31 31 31 34 38 39 36 35 35 36 36 35 33 31 30 29 29 29 31 32 32 32 31 29 28 27 25 23 22 19 17 15
32 32 33 33 34 35 36 38 38 36 34 33 32 34 36 35 36 36 35 31 29 29 31 32 31 30 31 33 38 43 42 39 38 38 35 32 30 30 30 31 33 34 37 39 39 36 34 31 29 28 28 28 29 30 30 31 34 35 35 35 35 35 36 37 36 34 32 30 30 29 30 32 33 32 32 31 29 29 28 26 24 22 20 18 17
31 31 31 33 34 34 35 37 38 37 36 34 32 32 33 32 34 35 35 33 30 28 30 31 30 30 31 32 35 39 41 39 38 37 34 31 30 31 30 31 31 32 35 38 38 35 33 30 27 27 28 27 28 30 31 32 33 34 35 36 36 36 37 38 36 35 32 30 29 29 30 31 30 28 29 30 30 29 30 28 26 24 21 20 19
29 30 31 32 34 33 32 34 35 36 37 35 33 33 33 31 31 33 34 33 30 28 29 29 29 29 29 31 34 36 37 38 38 35 32 30 31 31 30 30 30 29 31 34 35 33 31 29 28 29 28 28 29 30 31 30 31 33 34 37 37 37 38 38 38 35 32 30 29 28 29 30 28 27 28 30 31 30 29 29 27 25 22 21 19
27 31 32 32 32 30 29 31 33 34 36 36 35 34 35 33 32 33 36 34 30 30 30 30 30 30 29 30 32 32 34 37 36 33 31 30 29 30 30 29 28 27 28 29 29 29 29 27 25 25 25 25 26 28 28 27 28 30 33 34 35 35 35 36 36 33 30 30 29 28 29 30 29 29 29 30 31 30 29 28 27 25 23 22 21
29 32 32 31 31 31 31 32 33 33 35 36 36 35 35 34 33 36 41 40 34 31 33 35 36 34 31 31 31 28 30 37 37 31 29 29 27 27 29 29 27 26 26 25 24 25 24 23 22 22 22 23 23 24 25 24 25 28 30 32 33 34 34 34 33 30 29 30 30 30 31 30 30 30 30 30 30 30 29 28 27 25 24 23 22
29 28 27 27 29 30 32 34 34 33 33 34 35 38 40 38 34 33 38 43 40 36 34 37 41 39 35 36 37 32 34 41 43 37 34 33 30 29 30 31 29 28 25 23 22 23 22 21 21 22 22 21 21 22 22 22 23 25 27 29 30 33 34 33 30 29 30 32 33 33 32 31 31 31 31 30 30 30 29 28 26 25 25 24 21
25 25 25 25 26 28 30 32 33 33 33 33 33 35 39 43 43 38 34 35 39 40 38 36 39 40 38 39 42 40 40 42 44 42 39 36 33 32 31 30 30 28 25 22 22 23 22 20 20 21 21 21 21 21 22 22 22 22 24 25 27 30 32 31 30 31 32 32 33 33 33 33 32 32 32 32 32 31 29 26 25 25 26 24 21
23 25 26 26 27 26 27 28 29 29 31 32 32 31 32 36 43 48 44 36 33 36 40 39 37 37 37 38 39 41 41 40 40 40 39 35 33 32 31 30 29 27 25 24 24 23 22 21 20 20 21 21 21 22 23 23 23 23 23 23 24 26 29 30 32 33 33 32 32 32 32 32 32 32 34 35 34 31 28 26 25 25 24 23 21
24 28 28 27 27 26 25 25 26 26 28 31 32 32 30 28 30 39 48 48 41 36 37 37 35 34 35 36 36 38 40 40 40 40 39 35 33 30 30 30 28 25 25 26 25 23 22 22 20 20 20 20 20 20 21 23 24 23 22 24 25 25 26 30 32 32 32 32 33 32 32 32 33 33 33 33 33 31 29 27 25 25 23 21 20
30 30 29 27 27 28 26 26 27 28 30 31 31 29 29 29 28 29 34 40 40 38 37 36 34 31 33 35 35 35 37 38 39 39 37 35 33 30 29 28 26 25 26 28 26 22 20 20 19 19 19 20 20 20 19 21 23 22 21 23 26 25 26 29 31 32 31 32 32 32 33 35 35 33 32 30 29 28 27 26 25 25 23 22 21
33 31 29 26 26 28 28 28 29 29 29 30 29 28 29 30 30 28 27 27 28 32 37 39 36 32 33 34 34 33 34 36 37 37 35 33 31 29 25 24 23 22 25 27 26 22 20 19 19 19 20 20 21 21 20 20 23 23 21 22 25 26 27 29 29 30 31 32 32 33 34 34 33 31 30 29 28 27 26 26 26 25 24 23 21
31 30 28 25 24 26 28 29 29 28 28 29 30 30 29 29 28 28 28 28 28 29 33 37 38 34 33 33 33 33 33 34 34 34 32 30 29 26 24 22 21 19 21 23 24 22 22 21 20 20 20 20 21 21 19 19 22 24 23 25 27 28 29 29 29 30 31 32 32 33 33 32 30 28 27 28 28 27 27 26 25 25 24 22 21
29 29 27 26 25 26 28 28 27 27 28 29 29 29 29 29 29 28 27 28 29 29 31 35 36 32 30 30 30 30 31 32 31 31 30 27 25 25 25 23 20 18 19 21 21 21 21 21 20 20 19 20 21 20 17 17 21 24 25 27 29 30 30 31 31 31 31 31 32 32 31 29 27 26 26 26 26 25 25 25 25 23 21 20 19
28 27 26 26 27 28 28 28 28 27 26 27 27 28 29 29 29 27 26 27 29 29 30 32 31 28 27 28 29 28 28 27 26 25 25 24 23 24 24 23 21 19 18 19 21 21 20 19 19 19 19 19 20 20 18 18 21 24 26 27 29 29 30 30 30 31 31 31 31 30 28 25 25 26 26 26 25 24 24 25 24 21 19 18 17
28 28 26 25 26 27 26 26 26 26 26 26 26 26 27 28 28 26 26 27 30 30 29 28 28 27 26 28 28 26 24 22 20 20 20 20 21 21 21 20 19 19 17 16 18 19 18 17 18 19 19 20 21 21 20 20 22 24 26 27 27 27 28 29 30 30 30 29 27 26 24 24 25 26 25 25 25 25 24 23 21 20 18 17 17
30 30 29 27 25 25 25 25 25 26 26 26 26 25 26 27 27 27 27 27 28 29 28 26 26 27 27 28 27 24 21 20 19 18 18 17 17 18 18 17 17 16 14 14 17 18 19 19 19 19 19 20 22 22 22 22 23 25 26 27 28 27 28 29 29 28 26 24 23 24 24 24 25 25 24 24 24 23 22 20 18 17 16 16 16
31 32 32 29 26 25 25 25 24 25 26 27 26 26 26 27 26 27 28 28 28 28 28 27 27 28 28 27 25 23 21 20 18 16 15 14 13 12 13 13 13 13 14 16 18 20 20 20 19 19 20 20 21 22 22 23 24 25 25 26 26 26 26 26 26 25 24 23 24 24 24 24 25 25 24 23 21 19 18 17 16 16 15 14 14
32 33 34 32 30 27 26 26 27 28 28 28 26 25 26 27 27 27 28 29 29 28 27 26 28 28 26 24 22 21 19 17 14 11 9 8 8 7 7 9 11 13 15 18 19 20 20 19 19 19 19 20 20 21 22 23 24 24 25 25 24 24 24 24 24 24 24 24 24 24 23 24 24 24 23 21 19 18 17 17 16 16 15 14 14
33 33 33 34 35 32 30 33 34 32 28 26 26 26 28 29 30 29 29 29 29 28 25 24 25 24 21 17 15 13 11 8 6 6 6 7 7 8 8 9 11 13 14 16 17 18 19 19 18 18 18 19 20 20 21 23 24 24 25 25 24 24 24 24 24 24 24 24 24 23 23 24 23 22 21 19 19 19 18 17 17 16 15 14 13
31 31 31 33 36 37 37 37 35 30 26 26 28 30 30 30 29 28 26 26 26 25 23 21 19 17 13 9 6 5 4 3 4 5 7 8 9 10 10 11 11 12 13 14 14 15 16 17 17 17 17 17 18 19 19 21 22 23 24 24 24 24 24 24 24 24 24 24 24 24 23 23 22 21 19 19 18 18 18 18 18 16 14 13 13
29 29 31 33 34 35 33 31 28 26 27 28 28 28 29 28 26 24 23 22 21 20 18 15 12 9 6 3 1 1 3 4 5 7 8 9 10 11 11 12 12 12 12 13 13 13 14 15 16 17 17 17 17 17 17 18 19 19 20 21 21 22 22 22 22 22 22 23 24 24 23 22 20 19 18 18 17 17 17 18 17 15 14 13 14
27 27 27 28 28 27 26 25 25 26 27 26 25 26 26 25 23 21 20 18 16 14 12 9 6 4 2 1 2 3 5 6 7 8 9 10 11 11 12 12 12 12 12 12 12 12 13 14 15 16 16 16 16 15 15 16 16 16 16 16 16 17 18 18 19 20 20 20 21 21 21 20 19 18 17 16 16 16 16 16 16 15 14 14 15
27 25 24 23 23 22 22 23 24 24 24 24 23 23 23 22 21 19 16 14 11 9 7 5 5 4 3 3 4 5 6 7 8 9 10 10 11 12 11 11 11 11 12 13 12 12 13 14 14 15 16 16 16 16 16 16 16 15 15 15 15 16 17 17 17 17 17 17 18 18 19 18 18 17 16 15 16 16 16 15 15 14 13 14 14
26 25 24 23 22 21 21 22 22 22 22 22 22 22 21 20 18 16 14 12 10 8 6 5 5 5 5 5 4 5 7 8 9 10 10 11 11 11 11 11 11 12 13 14 14 14 15 16 16 17 18 18 18 18 18 18 18 17 17 16 15 15 15 15 16 16 16 16 16 16 16 16 16 16 16 16 16 16 15 15 14 13 13 13 12
25 24 23 23 21 20 21 21 21 21 21 22 21 21 20 19 16 14 12 11 9 8 7 6 5 5 5 5 5 5 7 8 9 11 11 12 12 12 12 13 13 14 14 15 16 16 17 18 18 19 19 19 18 18 18 18 18 17 16 15 14 13 14 14 15 15 16 16 15 15 14 14 14 14 14 14 14 14 14 13 13 13 13 13 13
24 23 22 22 21 21 22 22 21 21 22 22 21 21 20 19 17 15 13 11 10 9 8 7 6 5 5 5 6 6 7 9 11 13 14 14 15 15 15 15 16 17 17 18 19 19 19 19 19 18 18 17 17 16 16 15 14 13 13 12 12 13 13 14 14 14 13 13 13 13 13 13 13 13 13 13 13 13 13 13 13 13 13 13 13
23 22 22 22 22 22 22 21 21 22 22 22 22 22 21 19 18 16 15 14 13 11 9 7 6 5 5 5 6 7 9 11 13 14 15 16 15 15 15 15 16 17 17 18 18 18 17 17 16 15 14 14 13 13 12 12 11 11 11 11 12 12 12 12 12 12 11 11 11 11 11 11 11 12 12 13 13 13 13 13 12 12 12 12 13
Wind_Direction
331 331 327 321 317 314 309 303 296 291 288 284 282 282 282 281 281 282 282 281 279 278 278 277 277 275 274 273 272 271 269 268 265 262 258 259 264 264 260 256 255 254 253 251 250 248 246 245 246 247 246 244 242 241 239 238 238 237 235 234 233 232 231 231 237 248 245 236 233 234 230 227 223 218 215 214 214 214 213 214 216 217 216 215 218
349 340 331 325 320 319 314 309 304 299 295 291 290 289 288 288 288 286 284 285 283 281 281 280 279 277 275 274 273 271 270 268 266 262 259 261 264 266 263 259 257 256 255 254 252 251 249 248 248 248 246 244 242 240 239 238 237 236 235 233 234 234 231 229 232 241 243 233 226 225 223 219 218 217 214 212 212 210 209 210 213 217 218 217 220
8 355 344 337 331 326 322 319 315 309 305 302 300 299 298 296 293 290 289 289 287 284 283 282 279 277 275 274 273 271 270 268 265 262 260 262 265 265 264 261 260 258 256 256 255 253 252 250 249 248 246 244 243 241 241 240 237 237 237 234 234 235 233 230 231 236 240 232 219 215 211 207 210 214 213 212 211 209 208 209 211 213 216 218 222
17 8 359 352 345 339 336 333 328 322 318 314 311 309 306 303 299 295 294 292 290 288 286 283 280 277 274 274 273 271 269 267 265 263 261 261 263 264 264 262 261 260 257 257 256 254 252 250 250 249 246 244 243 241 240 240 238 237 237 236 235 235 234 231 231 233 235 223 207 208 203 196 200 208 207 206 208 209 208 209 210 211 213 217 220
18 13 7 3 359 356 352 347 341 335 330 325 321 318 314 309 305 301 298 295 293 291 289 285 282 279 277 276 275 273 272 269 265 264 263 262 261 263 264 263 262 261 260 258 256 254 252 251 251 250 247 245 244 242 240 239 238 237 237 236 236 236 234 232 230 230 228 215 196 194 193 188 190 199 201 200 198 200 202 204 205 205 208 213 215
17 13 10 9 7 4 360 354 348 343 337 333 329 325 321 317 312 309 305 300 297 295 292 289 286 283 281 280 278 276 274 271 267 266 266 264 262 262 263 264 263 262 261 259 257 255 253 253 252 251 248 246 245 244 242 241 239 237 237 237 236 235 233 231 228 224 222 213 194 183 183 185 185 189 194 195 190 186 186 190 196 201 205 209 211
14 12 11 10 8 5 1 356 350 345 341 338 334 331 329 324 320 317 312 306 302 300 297 294 291 288 285 282 280 277 275 272 269 268 267 265 263 262 262 262 263 263 262 261 260 257 255 254 253 251 249 248 247 246 244 242 240 239 238 238 236 233 230 229 225 218 214 206 192 185 183 183 185 184 184 186 186 183 183 184 190 199 205 208 210
12 11 10 9 7 3 360 356 352 347 344 340 338 336 333 328 324 320 315 310 307 305 302 299 295 290 287 283 281 279 275 272 269 267 266 265 263 261 260 260 260 260 261 261 261 259 258 257 255 253 251 250 249 248 246 243 241 240 240 238 235 232 229 225 219 213 208 199 190 185 180 178 181 180 178 177 178 184 192 194 194 199 204 207 210
14 12 10 10 6 1 358 355 351 349 347 344 342 338 334 330 326 320 316 313 311 308 304 301 296 291 288 285 283 279 275 272 270 268 267 265 264 262 261 260 259 258 259 260 260 260 259 259 257 255 254 253 252 250 249 247 243 242 241 237 232 230 226 220 213 206 202 197 190 182 177 177 177 172 171 177 183 189 196 197 197 200 202 204 209
18 17 15 13 9 4 360 355 352 350 347 345 343 340 336 332 327 323 320 317 314 312 308 302 296 292 290 287 284 280 276 274 273 271 269 266 265 264 262 261 260 259 258 259 259 260 259 259 259 258 257 256 254 252 251 249 247 245 244 240 233 228 220 213 210 206 200 196 190 181 177 179 177 175 178 187 192 193 193 192 192 194 195 199 208
18 17 14 12 9 6 3 359 356 353 350 347 343 339 336 332 329 326 324 321 318 315 309 304 300 296 293 289 285 281 278 277 276 274 271 268 266 264 263 263 261 260 259 258 259 260 260 259 260 260 259 257 255 254 253 251 249 248 246 243 238 232 223 215 210 205 201 198 192 185 180 177 180 185 188 190 191 192 191 190 187 185 186 190 198
14 12 10 8 6 4 1 358 357 355 352 349 345 341 337 334 332 329 326 324 321 316 310 306 303 300 295 291 288 284 282 282 279 276 273 270 267 265 264 263 262 261 260 259 259 260 260 260 260 259 258 257 257 255 254 253 251 248 246 243 241 237 231 224 217 209 203 198 190 187 186 183 185 190 192 190 188 189 190 189 188 189 189 190 192
9 7 5 3 1 360 357 354 353 352 350 347 345 342 339 336 334 331 327 325 321 315 312 308 305 302 297 293 291 289 287 286 282 278 276 272 268 265 264 263 262 262 261 260 260 259 259 259 259 258 257 256 256 254 253 252 250 247 244 242 240 237 234 229 224 217 208 200 193 193 194 190 188 190 193 193 189 185 185 188 192 193 193 195 197
4 1 360 358 357 355 353 350 349 348 347 345 343 341 339 336 335 333 329 326 321 317 313 309 306 303 299 296 294 292 290 289 285 281 278 275 271 266 264 263 262 262 262 261 260 260 259 258 258 258 257 255 253 252 250 250 248 244 242 239 237 235 231 226 222 219 213 205 199 199 197 195 195 199 200 198 194 190 189 192 194 195 195 197 199
359 356 355 354 353 351 349 347 346 346 345 343 341 340 338 336 335 334 331 326 322 318 314 309 306 303 300 297 294 292 291 289 286 283 280 277 274 268 264 263 262 262 263 261 260 260 259 258 258 258 257 256 253 251 250 248 245 241 239 235 233 231 227 222 218 215 211 206 203 201 200 201 206 210 207 204 201 201 200 200 198 194 191 189 191
355 353 351 350 349 349 347 345 343 343 342 341 339 339 337 335 335 334 331 327 323 319 315 311 307 304 301 297 291 290 292 290 286 284 281 278 275 269 264 262 261 262 263 262 261 261 259 258 257 257 257 256 254 251 249 246 241 237 235 231 228 225 222 218 216 213 209 205 205 206 207 208 211 212 209 205 203 202 199 196 192 185 178 173 177
352 349 347 346 345 344 344 342 340 339 339 338 336 335 333 332 332 331 329 326 323 320 317 313 310 305 302 298 292 290 293 292 287 285 282 277 274 269 263 261 260 260 262 262 261 261 260 258 256 256 257 255 253 251 248 243 237 233 230 225 220 217 214 212 211 210 207 204 206 210 213 215 214 211 208 207 205 200 191 182 180 178 173 169 175
347 344 342 340 339 339 339 337 336 335 334 333 332 330 329 328 328 328 326 323 321 320 317 314 312 308 304 301 297 293 294 295 291 286 284 278 272 268 264 261 260 260 261 262 262 260 259 258 256 254 255 254 252 250 247 239 232 228 223 216 211 208 205 201 198 198 199 202 208 213 214 213 211 207 205 206 205 201 192 185 183 179 175 176 177
340 337 335 334 334 334 334 333 332 331 330 329 327 325 324 324 325 325 324 321 319 318 316 313 311 309 306 303 300 296 294 296 294 288 285 280 273 268 265 261 260 261 261 261 262 261 259 257 255 252 252 253 252 249 246 238 229 224 217 209 205 204 201 195 192 191 195 199 203 204 202 201 200 199 198 199 199 198 197 195 190 183 180 181 175
334 332 330 330 329 330 330 330 329 327 326 325 325 323 322 322 323 322 321 319 317 315 313 310 307 307 306 304 301 297 294 295 295 291 286 282 276 269 264 260 258 260 261 261 261 260 258 255 253 250 250 251 250 247 245 237 228 222 214 208 207 206 200 196 194 193 192 192 190 189 186 186 188 187 185 187 191 193 197 200 198 193 189 184 178
329 328 327 326 326 327 327 326 326 325 324 324 323 322 321 320 320 318 317 316 314 312 310 308 305 305 305 302 300 298 296 294 294 292 287 282 278 271 262 259 259 260 261 261 259 259 258 255 252 249 248 249 248 244 241 236 228 222 217 215 215 211 202 197 195 192 189 186 182 179 177 175 176 177 178 183 189 192 196 200 202 200 198 191 185
326 325 323 323 323 324 325 325 324 324 323 323 321 320 319 318 317 315 314 312 310 308 307 306 303 302 302 301 299 298 297 295 294 293 288 281 277 272 265 262 262 260 260 261 260 259 259 257 254 250 248 248 246 242 239 233 224 222 222 220 217 211 202 195 192 189 187 183 177 173 171 171 172 174 176 183 189 193 196 199 199 198 200 202 197
325 324 323 323 323 323 324 324 323 322 321 321 319 317 316 316 314 313 311 309 307 305 303 303 301 298 299 299 298 297 297 296 294 293 290 284 277 272 267 265 264 259 257 259 261 260 261 259 256 252 249 247 243 239 237 229 220 221 224 220 213 207 199 193 189 187 185 181 175 172 173 174 173 175 179 184 191 193 194 195 195 191 190 193 195
326 325 325 324 324 324 323 322 321 320 320 319 317 314 313 313 312 311 309 306 303 300 299 300 299 296 295 296 297 298 297 297 295 293 291 288 283 277 271 267 265 260 257 258 261 261 262 260 256 252 249 248 242 236 233 227 221 222 223 216 209 203 196 191 189 186 182 178 175 175 177 178 178 181 183 185 188 191 191 190 189 186 184 184 184
326 325 325 324 323 323 322 319 319 318 317 317 314 311 311 311 309 308 306 304 299 296 296 296 295 293 292 292 294 296 296 296 294 292 290 289 286 283 279 273 267 261 257 258 260 261 261 259 255 250 248 245 239 233 229 227 223 222 219 212 205 199 194 191 188 185 181 179 178 178 179 181 184 185 183 182 183 184 184 182 180 180 181 181 180
325 324 324 323 321 321 320 318 317 316 315 314 311 308 307 306 304 303 302 299 296 294 293 293 292 290 289 288 289 292 294 294 292 290 289 288 287 286 283 278 273 265 260 260 261 262 261 257 251 245 242 238 232 227 226 227 226 223 218 211 205 198 193 190 187 184 181 178 178 180 182 182 182 181 178 178 179 180 180 178 175 175 179 178 173
324 321 321 320 318 318 317 315 314 314 313 312 310 307 305 302 299 298 296 294 295 293 290 289 289 286 286 288 289 290 291 291 290 289 288 287 288 288 285 280 276 269 263 262 261 260 257 251 245 241 238 233 229 227 226 228 228 224 216 209 204 199 194 191 189 185 182 179 180 182 181 177 175 174 175 177 179 180 182 181 176 172 174 177 171
320 317 317 316 314 314 313 311 311 311 310 308 307 304 302 300 296 293 290 288 288 288 288 286 283 282 283 285 287 288 289 288 287 289 291 290 289 289 285 279 275 269 263 262 260 256 251 243 237 235 230 224 223 223 223 226 225 219 212 207 204 199 194 191 190 187 185 183 181 178 173 170 169 171 173 176 179 180 181 181 178 175 175 176 171
317 314 314 314 313 313 311 309 308 307 305 304 303 300 297 294 291 289 290 289 284 281 282 282 281 281 282 281 281 282 283 284 285 289 293 292 288 285 281 278 273 268 264 261 254 246 238 229 223 219 215 213 215 215 217 221 220 216 212 207 201 197 193 191 188 185 183 181 176 170 166 165 166 169 171 174 178 180 180 180 179 177 177 177 175
317 315 316 316 314 313 312 309 308 306 303 302 301 301 299 296 290 283 285 291 291 283 277 277 280 282 280 278 278 276 275 280 285 287 286 285 283 280 279 278 274 268 265 258 243 231 225 219 215 212 208 209 211 210 211 213 214 214 213 206 197 193 192 189 184 180 180 178 173 168 165 163 164 166 169 172 175 176 179 181 181 179 179 178 176
316 314 315 312 310 309 308 307 307 306 304 302 300 300 301 302 300 291 284 287 292 290 284 279 279 280 278 276 278 278 277 279 283 283 281 280 278 275 276 276 273 268 262 248 230 221 218 216 214 212 209 209 211 209 208 209 210 211 209 202 195 190 186 181 177 176 175 173 169 166 165 165 166 167 170 172 171 171 176 181 183 184 185 184 183
312 311 310 307 305 304 302 302 302 302 303 303 301 298 298 299 301 301 297 293 290 289 289 286 282 280 278 275 276 278 279 279 280 280 279 278 275 271 271 272 271 267 258 240 223 217 217 215 214 212 210 211 213 211 208 207 208 207 202 194 190 187 180 174 173 173 172 168 165 165 166 167 169 170 171 171 169 169 175 181 183 184 185 186 188
310 307 306 305 303 300 298 298 298 297 299 301 300 297 294 290 292 298 301 301 297 291 289 288 285 283 282 279 276 277 278 280 280 278 277 275 272 268 268 268 265 260 249 235 223 218 216 215 215 213 211 212 215 214 211 209 208 207 200 189 186 184 178 173 172 173 171 168 167 166 167 169 170 169 169 169 169 172 177 180 182 183 183 182 183
308 304 301 300 298 296 294 295 295 294 295 295 294 292 291 288 285 287 293 298 301 300 295 293 291 288 286 283 280 278 278 279 280 278 276 273 269 265 264 264 260 253 244 235 226 219 216 215 214 212 212 213 214 215 215 212 209 208 198 186 181 178 174 172 172 171 169 167 167 168 170 171 171 167 164 164 167 172 177 180 180 181 181 180 180
308 304 300 297 294 292 292 293 294 293 292 290 290 289 288 287 286 283 281 286 292 295 295 295 294 292 289 286 283 282 281 280 280 278 275 270 265 261 258 255 250 245 241 236 228 219 213 212 211 210 210 211 210 212 214 210 206 203 192 179 173 170 168 169 169 168 166 166 168 170 172 171 170 167 164 165 168 173 177 180 182 183 182 180 181
309 306 304 301 297 294 294 294 293 291 289 288 287 287 287 286 283 282 282 283 283 284 288 292 293 293 290 286 285 284 283 281 280 277 272 266 260 253 246 242 240 237 236 234 227 217 210 209 208 208 209 208 207 209 211 205 197 191 183 174 170 168 167 168 169 167 166 168 170 172 171 169 168 167 166 169 174 178 180 181 182 183 184 184 186
311 309 308 306 303 301 298 296 294 291 289 289 289 287 287 286 284 283 283 284 285 286 287 290 292 293 291 289 287 287 285 283 280 275 268 263 258 250 242 240 239 237 235 231 222 212 206 205 204 205 206 205 204 205 204 194 183 179 176 174 172 171 171 172 172 171 170 171 171 172 170 168 168 169 170 171 174 178 180 180 181 182 186 190 191
312 309 306 305 305 303 298 295 295 294 291 289 288 288 288 288 287 286 285 287 289 289 288 288 289 289 288 290 290 289 287 283 277 269 262 257 253 247 243 241 239 238 238 231 218 206 199 196 197 200 202 201 201 200 195 183 174 170 170 171 171 172 172 172 172 173 173 172 171 170 169 167 168 173 175 174 173 175 177 179 180 181 185 192 197
313 310 306 303 301 299 295 292 295 297 295 291 289 289 290 290 290 290 290 291 290 289 287 286 285 284 285 288 290 289 284 275 266 259 255 251 247 244 244 244 242 240 238 225 206 195 189 187 191 197 198 198 197 195 189 180 173 171 171 170 168 168 170 171 172 173 173 172 170 168 168 168 171 175 178 177 176 176 176 178 184 188 191 196 200
314 311 309 306 300 295 292 291 291 292 292 292 291 290 289 289 289 290 291 291 290 289 287 285 284 284 286 288 288 285 277 266 260 258 254 249 244 244 245 246 242 234 222 203 187 183 184 186 189 193 194 194 193 191 187 182 177 175 175 174 172 171 173 175 176 176 175 173 170 168 169 170 171 173 176 178 178 179 179 182 189 194 196 197 198
314 311 309 308 303 298 296 292 288 288 291 292 290 287 286 285 285 287 289 289 288 288 288 286 285 286 287 287 286 281 272 265 262 260 253 244 238 238 238 234 224 210 196 185 181 182 184 185 187 188 189 189 189 187 185 183 181 179 178 178 177 177 177 178 178 178 176 173 170 169 170 172 173 173 173 175 176 179 183 187 190 192 193 195 197
314 311 310 310 308 303 298 295 294 294 292 290 286 284 285 287 287 287 289 289 288 287 286 286 287 288 288 288 285 278 268 261 257 251 238 221 209 204 200 197 191 185 182 182 182 183 183 183 184 186 187 187 186 186 183 181 181 181 180 180 180 179 177 176 176 175 173 170 169 170 170 172 173 174 174 174 176 180 184 187 189 189 191 193 195
314 311 309 309 309 306 302 302 303 299 291 287 288 290 292 292 291 290 290 289 288 288 286 286 289 291 289 286 279 266 254 245 232 210 188 172 162 155 152 154 158 163 170 175 179 181 181 179 178 181 184 185 186 187 186 185 184 182 180 180 179 177 175 172 170 170 169 167 167 169 170 170 172 173 174 176 180 182 184 186 187 188 191 194 197
314 310 307 307 309 309 308 308 306 299 292 294 297 297 297 296 294 294 294 293 292 292 291 291 292 291 287 279 266 246 223 193 167 158 152 147 143 140 138 139 143 149 157 163 169 174 177 174 172 172 174 176 180 182 183 184 184 184 182 179 176 173 172 171 169 169 170 168 166 167 168 169 170 172 174 178 182 183 184 186 186 187 190 195 198
313 310 308 308 309 310 309 308 306 301 301 302 302 302 303 303 301 300 301 302 301 301 300 298 297 293 285 280 270 162 136 130 129 131 132 134 134 133 133 135 138 143 148 152 159 167 171 170 169 166 163 164 167 170 171 173 176 179 181 180 177 174 172 172 171 171 171 170 168 167 168 170 173 175 178 182 186 189 189 190 190 193 197 201 203
316 312 310 308 308 308 307 307 307 307 307 307 308 309 309 309 309 311 313 315 316 316 314 314 316 319 329 22 92 113 117 120 121 121 123 126 126 125 125 128 131 136 140 143 148 155 159 161 161 158 154 154 154 155 157 159 162 165 169 171 170 167 165 165 166 166 168 170 170 171 173 175 178 181 184 186 190 194 196 197 201 205 207 208 208
322 318 314 310 309 309 310 312 313 312 311 312 314 313 313 315 320 324 326 330 334 335 338 349 3 17 39 65 93 109 115 118 119 119 120 123 122 120 121 123 126 130 133 134 137 141 144 146 147 145 142 141 141 141 143 144 145 146 148 149 150 151 151 154 158 161 166 172 176 177 180 182 182 185 190 191 193 197 199 201 206 208 206 207 207
329 324 320 318 317 317 319 321 321 320 320 321 321 319 320 324 331 336 342 349 354 356 3 18 34 47 58 70 88 106 115 119 119 117 119 120 119 119 123 124 125 128 130 129 130 132 133 133 134 133 132 133 134 135 136 137 139 140 140 141 145 149 152 156 161 165 169 175 179 183 187 190 190 191 193 193 195 198 200 200 201 200 198 200 202
337 331 326 324 323 325 329 332 330 328 329 331 330 329 331 336 342 348 355 2 8 13 20 31 43 53 63 74 89 105 115 118 115 113 114 115 115 117 120 120 120 122 124 123 123 125 126 127 128 128 129 131 133 135 137 139 141 143 145 147 152 159 163 167 171 174 178 182 185 187 188 188 187 187 190 192 195 197 197 196 196 195 194 196 198
348 343 337 330 327 329 334 338 339 340 340 341 343 344 345 347 353 0 7 13 19 24 30 36 42 51 67 86 100 107 111 114 114 114 114 114 114 116 116 116 117 118 119 118 119 120 122 124 126 127 130 133 136 139 141 145 148 153 157 160 164 168 171 173 175 177 180 182 183 183 183 181 180 181 184 188 190 192 192 192 193 193 194 196 198
354 353 350 346 344 344 344 343 344 345 346 347 352 356 358 358 1 6 11 17 21 25 30 36 43 56 75 91 102 109 112 113 114 115 114 112 113 113 114 116 117 119 121 122 122 123 125 126 128 130 133 137 140 144 148 151 153 155 157 159 159 161 163 164 165 167 169 171 173 174 174 175 177 178 180 183 186 188 189 189 190 191 194 196 198